Meridianville, AL

11:04 AM CST on December 10, 2016 (GMT -0600)
Huntsville Madison

Weather History for KMDQ - January, 2013

Change the Weather History Date:

Tuesday, January 15, 2013

  Actual Average (KHSV) Record (KHSV)
Temperature  
Mean Temperature 35 °F -  
Max Temperature 37 °F 48 °F 75 °F (1947)
Min Temperature 33 °F 29 °F 5 °F (1927)
Degree Days  
Heating Degree Days 30    
Moisture  
Dew Point 34 °F    
Average Humidity 93    
Maximum Humidity 100    
Minimum Humidity 87    
Precipitation  
Precipitation 0.83 in - - ()
Sea Level Pressure  
Sea Level Pressure 30.08 in    
Wind  
Wind Speed 7 mph (North)    
Max Wind Speed 15 mph    
Max Gust Speed 18 mph    
Visibility 4 miles    
Events Rain , Snow    
Averages and records for this station are not official NWS values.
T = Trace of Precipitation, MM = Missing Value Source: NWS Daily Summary

Daily Weather History Graph

Daily Weather History Graph

Search for Another Location

Airport or City:

Trip Planner

Search our weather history database for the weather conditions in past years. The results will help you decide how hot, cold, wet, or windy it might be!

Date:

Astronomy

Jan. 15, 2013 Rise Set
Actual Time 6:53 AM CST 4:58 PM CST
Civil Twilight 6:25 AM CST 5:25 PM CST
Nautical Twilight 5:54 AM CST 5:56 PM CST
Astronomical Twilight 5:24 AM CST 6:27 PM CST
Moon 9:10 AM CST (1/15) 9:34 PM CST (1/15)
Length of Visible Light 11h 00m
Length of Day
10h 05m
Waxing Crescent, 19% of the Moon is Illuminated
Jan 15
Waxing Crescent
Jan 18
First Quarter
Jan 26
Full
Feb 3
Last Quarter
Feb 10
New

Hourly Weather History & Observations

Time (CST) Temp. Windchill Dew Point Humidity Pressure Visibility Wind Dir Wind Speed Gust Speed Precip Events Conditions
12:15 AM 33.8 °F 27.0 °F 32.0 °F 93% 30.16 in 7.0 mi North 8.1 mph - N/A Rain Light Rain
12:35 AM 33.8 °F 26.4 °F 32.0 °F 93% 30.17 in 4.0 mi North 9.2 mph - N/A Rain Light Rain
12:55 AM 33.8 °F 27.0 °F 32.0 °F 93% 30.15 in 3.0 mi North 8.1 mph - 0.01 in Rain Rain
1:35 AM 33.8 °F 27.7 °F 32.0 °F 93% 30.15 in 4.0 mi North 6.9 mph - N/A Rain Light Rain
1:55 AM 33.8 °F 26.4 °F 32.0 °F 93% 30.17 in 7.0 mi NNW 9.2 mph - N/A   Drizzle
2:15 AM 33.8 °F 26.4 °F 32.0 °F 93% 30.16 in 4.0 mi North 9.2 mph - 0.01 in Rain Rain
2:35 AM 33.8 °F 27.0 °F 32.0 °F 93% 30.15 in 5.0 mi North 8.1 mph - 0.01 in Rain Rain
3:15 AM 33.8 °F 26.4 °F 32.0 °F 93% 30.16 in 4.0 mi North 9.2 mph - 0.01 in Rain Light Rain
3:35 AM 33.8 °F 25.8 °F 32.0 °F 93% 30.17 in 7.0 mi North 10.4 mph - 0.01 in   Light Drizzle
3:55 AM 33.8 °F 25.3 °F 32.0 °F 93% 30.16 in 5.0 mi North 11.5 mph - 0.01 in Rain Light Rain
4:15 AM 33.8 °F 26.4 °F 32.0 °F 93% 30.15 in 5.0 mi North 9.2 mph - N/A   Overcast
4:35 AM 33.8 °F 27.0 °F 32.0 °F 93% 30.16 in 7.0 mi North 8.1 mph - N/A   Overcast
5:15 AM 33.8 °F 27.0 °F 32.0 °F 93% 30.16 in 7.0 mi North 8.1 mph - N/A   Overcast
5:35 AM 33.8 °F 26.4 °F 32.0 °F 93% 30.17 in 7.0 mi North 9.2 mph - N/A   Overcast
5:55 AM 33.8 °F 27.0 °F 32.0 °F 93% 30.16 in 7.0 mi North 8.1 mph - N/A   Overcast
6:15 AM 33.8 °F 27.0 °F 32.0 °F 93% 30.17 in 7.0 mi North 8.1 mph - N/A   Overcast
6:35 AM 33.8 °F 28.6 °F 32.0 °F 93% 30.17 in 5.0 mi NNE 5.8 mph - N/A   Overcast
6:55 AM 33.8 °F 27.0 °F 32.0 °F 93% 30.17 in 5.0 mi NNE 8.1 mph - N/A   Overcast
7:15 AM 33.8 °F 27.0 °F 32.0 °F 93% 30.16 in 4.0 mi NNE 8.1 mph - N/A Rain Light Rain
7:35 AM 33.8 °F 28.6 °F 32.0 °F 93% 30.17 in 2.0 mi NNE 5.8 mph - 0.01 in Rain Rain
7:55 AM 33.8 °F 28.6 °F 32.0 °F 93% 30.15 in 2.5 mi NNE 5.8 mph - 0.02 in Rain Light Rain
8:15 AM 33.8 °F 28.6 °F 32.0 °F 93% 30.15 in 2.5 mi NNE 5.8 mph - 0.01 in Rain Rain
8:35 AM 33.8 °F 28.6 °F 32.0 °F 93% 30.16 in 2.0 mi North 5.8 mph - 0.02 in Rain Heavy Rain
8:55 AM 35.6 °F 29.9 °F 32.0 °F 87% 30.15 in 2.0 mi NNE 6.9 mph - 0.03 in Rain Heavy Rain
9:15 AM 35.6 °F 29.9 °F 32.0 °F 87% 30.15 in 3.0 mi North 6.9 mph - 0.01 in Rain Light Rain
9:35 AM 35.6 °F 31.7 °F 33.8 °F 93% 30.14 in 3.0 mi NNE 4.6 mph - 0.01 in Rain Heavy Rain
9:55 AM 35.6 °F 31.7 °F 33.8 °F 93% 30.12 in 5.0 mi NNE 4.6 mph - 0.01 in   Drizzle
10:15 AM 35.6 °F 30.7 °F 33.8 °F 93% 30.10 in 0.8 mi NNE 5.8 mph - 0.07 in Snow Light Snow
10:35 AM 35.6 °F 30.7 °F 33.8 °F 93% 30.12 in 4.0 mi North 5.8 mph - 0.09 in Rain Light Rain
10:55 AM 35.6 °F 30.7 °F 33.8 °F 93% 30.09 in 1.8 mi NNE 5.8 mph - 0.11 in Rain Rain
11:15 AM 35.6 °F 31.7 °F 33.8 °F 93% 30.09 in 5.0 mi North 4.6 mph - 0.01 in Rain Heavy Rain
11:35 AM 37.4 °F 31.4 °F 33.8 °F 87% 30.06 in 2.0 mi NNE 8.1 mph - 0.03 in Rain Rain
11:55 AM 37.4 °F 34.9 °F 35.6 °F 93% 30.05 in 7.0 mi NE 3.5 mph - 0.04 in Rain Light Rain
12:15 PM 37.4 °F 33.8 °F 35.6 °F 93% 30.04 in 1.2 mi North 4.6 mph - 0.02 in Rain Heavy Rain
12:35 PM 37.4 °F 30.3 °F 35.6 °F 93% 30.04 in 2.5 mi NNW 10.4 mph - 0.05 in Rain Light Rain
12:55 PM 37.4 °F 32.1 °F 35.6 °F 93% 30.03 in 2.5 mi North 6.9 mph - 0.06 in Rain Rain
1:15 PM 35.6 °F 31.7 °F 33.8 °F 93% 30.04 in 1.8 mi North 4.6 mph - 0.03 in Rain Rain
1:35 PM 37.4 °F 33.8 °F 33.8 °F 87% 30.01 in 3.0 mi NNE 4.6 mph - 0.06 in Rain Rain
1:55 PM 37.4 °F 32.8 °F 35.6 °F 93% 29.99 in 3.0 mi East 5.8 mph - 0.07 in Rain Rain
2:15 PM 37.4 °F 34.9 °F 35.6 °F 93% 29.97 in 2.5 mi East 3.5 mph - 0.02 in Rain Rain
2:35 PM 37.4 °F 33.8 °F 35.6 °F 93% 29.97 in 3.0 mi NNW 4.6 mph - 0.04 in Rain Rain
2:55 PM 37.4 °F 32.8 °F 35.6 °F 93% 29.98 in 3.0 mi NNW 5.8 mph - 0.06 in Rain Rain
3:35 PM 37.4 °F 30.8 °F 35.6 °F 93% 30.04 in 2.5 mi NW 9.2 mph - 0.01 in Rain Rain
3:55 PM 35.6 °F 26.2 °F 33.8 °F 93% 30.05 in 4.0 mi North 15.0 mph 18.4 mph 0.01 in Rain Light Rain
4:55 PM 35.6 °F 30.7 °F 33.8 °F 93% 30.04 in 5.0 mi NNE 5.8 mph - N/A Rain Light Rain
5:15 PM 35.6 °F 32.8 °F 33.8 °F 93% 30.04 in 4.0 mi North 3.5 mph - 0.01 in Rain Light Rain
5:35 PM 35.6 °F 28.6 °F 33.8 °F 93% 30.05 in 3.0 mi NNW 9.2 mph - 0.04 in Rain Rain
5:55 PM 35.6 °F 30.7 °F 33.8 °F 93% 30.04 in 3.0 mi North 5.8 mph - 0.04 in Rain Rain
6:15 PM 35.6 °F 31.7 °F 33.8 °F 93% 30.04 in 7.0 mi NNE 4.6 mph - N/A Rain Light Rain
6:35 PM 35.6 °F 29.2 °F 33.8 °F 93% 30.03 in 3.0 mi North 8.1 mph - 0.01 in Rain Light Rain
6:55 PM 35.6 °F 29.2 °F 33.8 °F 93% 30.04 in 4.0 mi North 8.1 mph - 0.01 in Rain Rain
7:15 PM 35.6 °F 29.2 °F 33.8 °F 93% 30.03 in 2.0 mi North 8.1 mph - 0.02 in Rain Light Rain
7:35 PM 35.6 °F 30.7 °F 33.8 °F 93% 30.03 in 2.5 mi North 5.8 mph - 0.06 in   Overcast
7:55 PM 35.6 °F 30.7 °F 33.8 °F 93% 30.03 in 1.8 mi North 5.8 mph - 0.09 in   Overcast
8:15 PM 35.6 °F - 33.8 °F 93% 30.04 in 1.8 mi Calm Calm - 0.03 in Snow Light Snow
8:35 PM 35.6 °F 32.8 °F 33.8 °F 93% 30.00 in 3.0 mi NNE 3.5 mph - 0.09 in Rain Rain
8:55 PM 35.6 °F 32.8 °F 33.8 °F 93% 29.99 in 3.0 mi North 3.5 mph - 0.10 in Rain Rain
9:15 PM 35.6 °F 32.8 °F 33.8 °F 93% 29.98 in 2.5 mi NNE 3.5 mph - 0.03 in Rain Rain
9:35 PM 35.6 °F - 33.8 °F 93% 29.97 in 3.0 mi Calm Calm - 0.07 in Rain Rain
9:55 PM 35.6 °F 32.8 °F 33.8 °F 93% 29.97 in 3.0 mi North 3.5 mph - 0.10 in Rain Rain
10:15 PM 37.4 °F 33.8 °F 35.6 °F 93% 29.97 in 3.0 mi North 4.6 mph - 0.01 in Rain Light Rain
10:35 PM 37.4 °F 34.9 °F 35.6 °F 93% 29.97 in 4.0 mi North 3.5 mph - 0.01 in Rain Light Rain
10:55 PM 37.4 °F 34.9 °F 35.6 °F 93% 29.97 in 3.0 mi WNW 3.5 mph - 0.04 in Rain Rain
11:15 PM 37.4 °F 32.1 °F 35.6 °F 93% 29.98 in 5.0 mi NW 6.9 mph - 0.01 in Rain Rain
11:35 PM 35.6 °F 30.7 °F 33.8 °F 93% 29.98 in 7.0 mi NNW 5.8 mph - 0.01 in Rain Light Rain
11:55 PM 35.6 °F 30.7 °F 35.6 °F 100% 29.97 in 7.0 mi NNW 5.8 mph - 0.01 in Rain Rain